This is the latest recevied weather packets stored in our database for station/object WA2GUG. If no packets are shown the sender has not sent any weather packets the latest 10 day(s).
| Time | Temp. | Humidity | Pressure | Rain* | Wind** | Luminosity | Snow |
|---|---|---|---|---|---|---|---|
| 1777465450 | 13.33° C | 99% | 1010 hPa | - | - | - | - |
| 1777465150 | 13.33° C | 99% | 1010.2 hPa | - | - | - | - |
| 1777464850 | 12.78° C | 99% | 1011 hPa | - | - | - | - |
| 1777464550 | 12.78° C | 99% | 1010.2 hPa | - | - | - | - |
| 1777464250 | 12.78° C | 99% | 1010.1 hPa | - | - | - | - |
| 1777463950 | 12.22° C | 99% | 1011 hPa | - | - | - | - |
| 1777463650 | 11.67° C | 99% | 1010.2 hPa | - | - | - | - |
| 1777463350 | 11.11° C | 99% | 1011 hPa | - | - | - | - |
| 1777463050 | 10.56° C | 99% | 1010.2 hPa | - | - | - | - |
| 1777462750 | 11.11° C | 99% | 1011 hPa | - | - | - | - |
| 1777462450 | 11.11° C | 99% | 1010.2 hPa | - | - | - | - |
| 1777462150 | 11.11° C | 99% | 1010.2 hPa | - | - | - | - |
| 1777461850 | 11.11° C | 99% | 1010.1 hPa | - | - | - | - |
| 1777461550 | 11.11° C | 99% | 1010.2 hPa | - | - | - | - |
| 1777461250 | 10.56° C | 99% | 1010.2 hPa | - | - | - | - |
| 1777460950 | 10.56° C | 99% | 1010.2 hPa | - | - | - | - |
| 1777460650 | 10° C | 99% | 1010.2 hPa | - | - | - | - |
| 1777460350 | 10° C | 99% | 1011 hPa | - | - | - | - |
| 1777460050 | 10° C | 99% | 1010.2 hPa | - | - | - | - |
| 1777459750 | 10° C | 99% | 1010.1 hPa | - | - | - | - |
| 1777459450 | 10° C | 99% | 1010 hPa | - | - | - | - |
| 1777459150 | 10° C | 99% | 1010 hPa | - | - | - | - |
| 1777458850 | 10° C | 99% | 1010 hPa | - | - | - | - |
| 1777458550 | 9.44° C | 99% | 1010 hPa | - | - | - | - |
| 1777458250 | 9.44° C | 99% | 1010 hPa | - | - | - | - |
* Rain since midnight (hover to see other rain measurements)
** Current wind speed in m/s (hover to see current wind gust speed)